825  
ASUS45 KTFX 181910  
RWRMT  
MONTANA REGIONAL WEATHER ROUNDUP  
NATIONAL WEATHER SERVICE GREAT FALLS MT  
100 PM MDT THU JUL 18 2024  
 
NOTE: "FAIR" INDICATES FEW OR NO CLOUDS BELOW 12,000 FEET WITH NO  
SIGNIFICANT WEATHER AND/OR S TO VISIBILITY
.  
 
MTZ001>007-043-182000-  
WEST OF THE DIVIDE  
 
CITY SKY/WX TMP DP RH WIND PRES REMARKS
 
KALISPELL MOSUNNY 85 52 32 S6 30.09S  
MISSOULA SUNNY 89 46 22 E5 30.08F  
BUTTE MOSUNNY 85 45 24 E8 30.22F  
HAMILTON SUNNY 84 48 28 N6 30.11F  
MULLAN PASS SUNNY 75 44 33 VRB3 30.29R  
PLAINS CLEAR 88 55 33 CALM 30.04S  

 
 
MTZ008-052>055-182000-  
SOUTHWEST MONTANA  
 
CITY SKY/WX TMP DP RH WIND PRES REMARKS
 
BOZEMAN MOSUNNY 87 50 27 E3 30.16F  
DILLON MOSUNNY 85 48 27 VRB7 30.18F  
ENNIS MOSUNNY 84 39 20 CALM 30.23F  
TWIN BRIDGES PTCLDY 84 43 23 CALM 30.17F  
W YELLOWSTONE MOSUNNY 82 41 23 S13G22 30.31F  

 
 
MTZ009-010-012-014-046-048-049-054-182000-  
EAST SLOPES AND CENTRAL MONTANA  
 
CITY SKY/WX TMP DP RH WIND PRES REMARKS
 
CUT BANK SUNNY 82 49 31 W7 30.12F  
GREAT FALLS SUNNY 86 48 26 MISG 30.10F  
HELENA MOSUNNY 88 46 23 CALM 30.11S  
MALMSTROM AFB SUNNY 86 48 26 CALM 30.07F  
AUGUSTA SUNNY 85 46 25 E13G23 30.12F  
BOWMANS CORNER MOSUNNY 86 44 22 NE12 30.07F  
FAIRFIELD SUNNY 86 47 25 S3 30.08F  
POWER SUNNY 86 48 26 N6 30.08F  
RAYNESFORD SUNNY 84 45 24 CALM 30.09F  
ULM MOSUNNY 87 46 23 CALM 30.05F  

 
 
MTZ011-013-016-021-045-047-050-051-182000-  
NORTH CENTRAL MONTANA  
 
CITY SKY/WX TMP DP RH WIND PRES REMARKS
 
HAVRE SUNNY 87 53 31 E6 30.03F  
LEWISTOWN SUNNY 87 48 25 VRB3 30.13F  
DENTON SUNNY 88 50 26 NE6 30.06F  
FORT BENTON CLEAR 85 53 33 SW5 30.04F  
GEYSER SUNNY 87 48 25 W6 30.09F  
GRASS RANGE SUNNY 90 46 21 CALM 30.04F  
JUDITH GAP MOSUNNY 84 44 23 NE5 30.14S  
N BAR RANCH SUNNY 90 46 22 NW10 30.14F  
ROY MOSUNNY 92 50 23 SE17G23 30.04F  
STANFORD MOSUNNY 88 44 21 E6 30.11F  
WINIFRED SUNNY 88 53 29 SW5 30.06F  

 
 
MTZ017>020-022>027-061-062-182000-  
NORTHEAST MONTANA  
 
CITY SKY/WX TMP DP RH WIND PRES REMARKS
 
GLASGOW SUNNY 92 47 21 E6 30.05S  
GLENDIVE SUNNY 89 51 27 VRB7 30.06F  
JORDAN N/A 93 47 20 E5 30.05S  
MALTA SUNNY 90 45 20 VRB5 30.04S  
PLENTYWOOD SUNNY 86 52 30 CALM 30.07F  
POPLAR SUNNY 90 52 27 VRB3 30.04F  
SIDNEY SUNNY 87 60 40 VRB5 30.05F  
WOLF POINT SUNNY 91 49 23 VRB7 30.04F  

 
 
MTZ028>42-056>058-182000-  
SOUTHCENTRAL AND SOUTHEAST MONTANA  
 
CITY SKY/WX TMP DP RH WIND PRES REMARKS
 
BAKER SUNNY 90 54 29 CALM 30.08F  
BIG TIMBER CLEAR 90 45 20 W12 30.15F  
BILLINGS SUNNY 87 48 25 S3 30.11F  
HARDIN CLEAR 90 46 22 VRB3 30.05F  
HARLOWTON FAIR 85 48 27 W6 30.12F  
LIVINGSTON MOSUNNY 90 50 25 N10 30.16F  
MILES CITY SUNNY 91 52 26 VRB3 30.04F  

 
 
REGIONAL REPORTS...DAKOTAS/MN  
 
CITY SKY/WX TMP DP RH WIND PRES REMARKS
 
WILLISTON SUNNY 86 59 39 E8 30.09S  
MINOT MOSUNNY 84 60 44 SE8 30.08F  
DICKINSON SUNNY 86 64 47 S12G21 30.07F  
BEACH DRIZZLE 86 55 35 SW8G14 30.09F  
BOWMAN FAIR 88 59 37 S14G20 30.09F  
CROSBY FAIR 84 57 39 SE8 30.08F  
GLEN ULLIN FAIR 86 59 39 S10G18 30.07F  
HETTINGER SUNNY 89 58 34 S15G21 30.10F  
TIOGA FAIR 81 64 57 SE7G15 30.11S  
WATFORD CITY FAIR 86 64 48 VRB6 30.07F  
BISMARCK SUNNY 86 57 37 SW8 30.11F  
GRAND FORKS MOSUNNY 80 57 45 S9 30.13F  
FARGO SUNNY 80 55 42 SW7 30.15F  
BUFFALO SD N/A 91 59 33 S15G21 30.06F HX 90  
RAPID CITY SUNNY 91 54 28 S15G24 30.11F  
INTL FALLS PTSUNNY 75 52 44 W9 30.15F  
DULUTH MOSUNNY 74 49 41 SW6 30.19F  
MINNEAPOLIS PTSUNNY 77 51 40 VRB5 30.21F  

 
 
REGIONAL REPORTS...WY/CO/ID/WA/OR  
 
CITY SKY/WX TMP DP RH WIND PRES REMARKS
 
BUFFALO WY SUNNY 87 44 22 VRB6 30.19S  
CODY MOSUNNY 90 42 18 VRB7 30.18F  
GILLETTE SUNNY 92 41 17 SW9 30.12F  
POWELL FAIR 88 34 14 SE5 30.18F  
SHERIDAN SUNNY 92 47 21 VRB3 30.12F  
BOISE SUNNY 93 50 23 W5 30.05F HX 90  
COUER D'ALENE SUNNY 86 54 33 VRB5 30.07S  
IDAHO FALLS SUNNY 89 54 30 SW9 30.19F  
SALMON MOSUNNY 85 49 28 N6 30.09F  
SPOKANE MOSUNNY 92 45 19 SW9 30.05S  
SEATTLE MOSUNNY 70 53 54 SW9 30.09F  
PORTLAND MOSUNNY 75 53 46 N6 30.09F  

 
 
OTHER REPORTS  
 
CITY SKY/WX TMP DP RH WIND PRES REMARKS
 
ATLANTA PTSUNNY 90 71 53 S12G20 30.00F HX 96  
ANCHORAGE LGT RAIN 53 50 89 S7 30.03R  
BOSTON MOSUNNY 88 61 40 NW8 29.83F  
CHICAGO MOSUNNY 73 51 46 N8G23 30.21S  
FAIRBANKS PTSUNNY 56 47 71 S6 30.00R  
HOUSTON CLOUDY 80 71 74 CALM 30.03F  
LAS VEGAS NV MOSUNNY 107 50 15 VRB3 29.96F HX 104  
PHOENIX AZ MOSUNNY 104 57 21 NW7 29.92F HX 103  
SALT LAKE CITY MOSUNNY 98 45 16 VRB5 30.13F HX 94  
SAN DIEGO MOSUNNY 75 64 68 SW9 30.00S  
SAN FRANCISCO MOSUNNY 67 55 65 NW15 30.01S  
WASHINGTON DUL CLOUDY 82 64 54 N9 29.98S  

 
 
REGIONAL REPORTS...ALBERTA  
 
CITY SKY/WX TMP DP RH WIND PRES REMARKS
 
CALGARY PTSUNNY 82 52 34 SW15 30.07S  
CARDSTON N/A 75 54 46 W7 N/A  
CROWSNEST PASS N/A 68 59 73 CALM N/A  
DEL BONITA N/A 81 50 34 W8 N/A  
FORT MCMURRAY SUNNY 88 61 40 N7 29.91S HAZE  
HIGH LEVEL MOSUNNY 90 57 33 SW8 29.82S  
LETHBRIDGE CLOUDY 73 59 60 SW5 30.10R  
MEDICINE HAT CLOUDY 77 61 57 E7 30.03F  
MILK RIVER N/A 82 52 34 NW5 N/A  
ONEFOUR N/A 82 52 34 NE14 N/A  
PINCHER CREEK LGT RAIN 63 57 82 W14 30.15F  
RAYMOND N/A 79 63 57 W10 N/A  
WATERTON GATE N/A 77 50 38 SW9 N/A  
FORT SMITH NWT SUNNY 88 63 42 S6 29.81F SMOKE  

 
 
REGIONAL REPORTS...SASKATCHEWAN  
 
CITY SKY/WX TMP DP RH WIND PRES REMARKS
 
ASSINIBOIA N/A 86 52 30 E3 N/A  
CYPRESS HILLS N/A 75 52 43 NW7 N/A  
ESTEVAN SUNNY 84 59 42 S7 30.07F  
MOOSE JAW N/A 84 54 34 E6 N/A  
PRINCE ALBERT PTSUNNY 84 68 58 S6 29.98F  
REGINA MOSUNNY 81 63 54 S6 30.06F  
ROCKGLEN N/A 88 43 20 NE5 N/A  
SASKATOON MOSUNNY 86 64 48 VRB2 30.00F  
SWIFT CURRENT MOSUNNY 88 50 27 W9G18 30.06S  
URANIUM CITY N/A 86 61 42 SW3 N/A  
VAL MARIE N/A 90 46 22 S9 N/A  

 
 
 
CLICK HERE TO GO TO PREVIOUS BULLETINS.

The Nexlab MT Page Main Text Page